When you browse on this site, cookies collect data to enhance your experience and personalize the content and advertising you see.
Visit our Privacy Policy to learn more. By continuing to use the site, you agree to this use of cookies and data.
  • In Hungary
  • List of Countries
  • For 7 days
  • Water Temperature
  • Satellite Maps
  • Weather Map
  • News
  • Weather Widgets
  • user-avatar
    Login

    Hourly Weather Gaesti

    Today, 22 March, Friday

    Time Temperature Precipitation Wind Pressure Humidity
    00:00 +7°C° 0 mm 2 mps 756 mmHg 77%
    01:00 +7°C° 0 mm 2 mps 756 mmHg 76%
    02:00 +6°C° 0 mm 2 mps 756 mmHg 75%
    03:00 +7°C° 0 mm 1 mps 756 mmHg 73%
    04:00 +7°C° 0 mm 1 mps 756 mmHg 72%
    05:00 +7°C° 0 mm 1 mps 756 mmHg 71%
    06:00 +7°C° 0 mm 1 mps 756 mmHg 67%
    07:00 +8°C° 0 mm 1 mps 756 mmHg 64%
    08:00 +9°C° 0 mm 1 mps 756 mmHg 61%
    09:00 +10°C° 0 mm 1 mps 755 mmHg 57%
    10:00 +12°C° 0 mm 1 mps 755 mmHg 53%
    11:00 +13°C° 0 mm 2 mps 755 mmHg 49%
    12:00 +15°C° 0 mm 2 mps 754 mmHg 46%
    13:00 +16°C° 0 mm 2 mps 754 mmHg 43%
    14:00 +17°C° 0 mm 3 mps 753 mmHg 40%
    15:00 +17°C° 0 mm 3 mps 753 mmHg 41%
    16:00 +17°C° 0 mm 3 mps 753 mmHg 42%
    17:00 +17°C° 0 mm 3 mps 753 mmHg 43%
    18:00 +16°C° 0 mm 3 mps 753 mmHg 49%
    19:00 +14°C° 0 mm 2 mps 753 mmHg 54%
    20:00 +13°C° 0 mm 2 mps 753 mmHg 60%
    21:00 +12°C° 0 mm 2 mps 753 mmHg 61%
    22:00 +12°C° 0 mm 1 mps 753 mmHg 63%
    23:00 +11°C° 0 mm 1 mps 753 mmHg 64%

    Tomorrow, 23 March, Saturday

    Time Temperature Precipitation Wind Pressure Humidity
    00:00 +11°C° 0 mm 1 mps 753 mmHg 64%
    01:00 +10°C° 0 mm 1 mps 753 mmHg 65%
    02:00 +10°C° 0 mm 1 mps 753 mmHg 65%
    03:00 +10°C° 0 mm 1 mps 753 mmHg 68%
    04:00 +9°C° 0 mm 1 mps 752 mmHg 72%
    05:00 +9°C° 0 mm 1 mps 752 mmHg 76%
    06:00 +8°C° 0 mm 2 mps 752 mmHg 76%
    07:00 +9°C° 0 mm 2 mps 752 mmHg 77%
    08:00 +9°C° 0 mm 2 mps 752 mmHg 78%
    09:00 +10°C° 0 mm 2 mps 752 mmHg 73%
    10:00 +11°C° 0 mm 3 mps 752 mmHg 68%
    11:00 +12°C° 0 mm 3 mps 752 mmHg 63%
    12:00 +13°C° 0 mm 3 mps 751 mmHg 59%
    13:00 +14°C° 0 mm 3 mps 751 mmHg 56%
    14:00 +16°C° 0 mm 3 mps 751 mmHg 52%
    15:00 +16°C° 0 mm 3 mps 750 mmHg 52%
    16:00 +16°C° 0 mm 3 mps 750 mmHg 52%
    17:00 +16°C° 0 mm 3 mps 750 mmHg 52%
    18:00 +14°C° 0 mm 3 mps 750 mmHg 57%
    19:00 +12°C° 0 mm 3 mps 750 mmHg 62%
    20:00 +11°C° 0 mm 4 mps 751 mmHg 67%
    21:00 +10°C° 0 mm 3 mps 751 mmHg 67%
    22:00 +10°C° 0 mm 3 mps 751 mmHg 68%
    23:00 +9°C° 0 mm 2 mps 752 mmHg 69%

    Day after tomorrow, 24 March, Sunday

    Time Temperature Precipitation Wind Pressure Humidity
    00:00 +9°C° 0 mm 2 mps 752 mmHg 62%
    01:00 +9°C° 0 mm 2 mps 752 mmHg 54%
    02:00 +8°C° 0 mm 2 mps 751 mmHg 47%
    03:00 +9°C° 0 mm 1 mps 751 mmHg 45%
    04:00 +8°C° 0 mm 1 mps 751 mmHg 44%
    05:00 +7°C° 0 mm 1 mps 751 mmHg 42%
    06:00 +8°C° 0 mm 1 mps 751 mmHg 40%
    07:00 +8°C° 0 mm 1 mps 751 mmHg 39%
    08:00 +8°C° 0 mm 0 mps 751 mmHg 37%
    09:00 +10°C° 0 mm 1 mps 751 mmHg 36%
    10:00 +10°C° 0 mm 2 mps 751 mmHg 35%
    11:00 +13°C° 0 mm 2 mps 750 mmHg 34%
    12:00 +13°C° 0 mm 3 mps 750 mmHg 34%
    13:00 +14°C° 0 mm 3 mps 749 mmHg 34%
    14:00 +16°C° 0 mm 3 mps 749 mmHg 34%
    15:00 +16°C° 0 mm 3 mps 748 mmHg 35%
    16:00 +17°C° 0 mm 4 mps 748 mmHg 36%
    17:00 +17°C° 0 mm 4 mps 748 mmHg 37%
    18:00 +14°C° 0 mm 3 mps 748 mmHg 41%
    19:00 +13°C° 0 mm 3 mps 748 mmHg 45%
    20:00 +12°C° 0 mm 2 mps 748 mmHg 48%
    21:00 +12°C° 0 mm 2 mps 748 mmHg 50%
    22:00 +10°C° 0 mm 2 mps 747 mmHg 52%
    23:00 +10°C° 0 mm 2 mps 747 mmHg 54%

    25 March, Monday

    Time Temperature Precipitation Wind Pressure Humidity
    00:00 +9°C° 0 mm 2 mps 747 mmHg 56%
    01:00 +9°C° 0 mm 2 mps 747 mmHg 57%
    02:00 +9°C° 0 mm 2 mps 746 mmHg 59%
    03:00 +8°C° 0 mm 2 mps 746 mmHg 60%
    04:00 +8°C° 0 mm 2 mps 745 mmHg 62%
    05:00 +8°C° 0 mm 2 mps 745 mmHg 64%
    06:00 +8°C° 0 mm 2 mps 745 mmHg 63%
    07:00 +10°C° 0 mm 1 mps 745 mmHg 62%
    08:00 +11°C° 0 mm 1 mps 745 mmHg 61%
    09:00 +12°C° 0 mm 1 mps 745 mmHg 56%
    10:00 +14°C° 0 mm 2 mps 745 mmHg 52%
    11:00 +16°C° 0 mm 2 mps 745 mmHg 47%
    12:00 +16°C° 0 mm 3 mps 744 mmHg 49%
    13:00 +16°C° 0 mm 3 mps 744 mmHg 50%
    14:00 +15°C° 0 mm 4 mps 743 mmHg 52%
    15:00 +14°C° 0.1 mm 5 mps 743 mmHg 57%
    16:00 +13°C° 0.1 mm 5 mps 743 mmHg 62%
    17:00 +11°C° 0.1 mm 6 mps 743 mmHg 66%
    18:00 +10°C° 0.3 mm 5 mps 743 mmHg 70%
    19:00 +10°C° 0.3 mm 4 mps 744 mmHg 74%
    20:00 +9°C° 0.3 mm 3 mps 744 mmHg 78%
    21:00 +9°C° 0.1 mm 2 mps 745 mmHg 78%
    22:00 +9°C° 0.1 mm 2 mps 745 mmHg 77%
    23:00 +9°C° 0.1 mm 2 mps 745 mmHg 77%

    26 March, Tuesday

    Time Temperature Precipitation Wind Pressure Humidity
    00:00 +9°C° 0.6 mm 2 mps 745 mmHg 78%
    01:00 +9°C° 0.6 mm 1 mps 745 mmHg 80%
    02:00 +9°C° 0.6 mm 1 mps 745 mmHg 82%
    03:00 +9°C° 1.3 mm 1 mps 745 mmHg 83%
    04:00 +8°C° 1.3 mm 1 mps 744 mmHg 85%
    05:00 +8°C° 1.3 mm 1 mps 744 mmHg 86%
    06:00 +7°C° 1.5 mm 1 mps 744 mmHg 85%
    07:00 +6°C° 1.5 mm 2 mps 744 mmHg 84%
    08:00 +6°C° 1.5 mm 2 mps 744 mmHg 83%
    09:00 +6°C° 0.7 mm 2 mps 745 mmHg 79%
    10:00 +6°C° 0.7 mm 2 mps 745 mmHg 75%
    11:00 +7°C° 0.7 mm 2 mps 745 mmHg 72%
    12:00 +7°C° 0.4 mm 2 mps 745 mmHg 68%
    13:00 +8°C° 0.4 mm 2 mps 745 mmHg 65%
    14:00 +9°C° 0.4 mm 2 mps 745 mmHg 62%
    15:00 +9°C° 0.5 mm 2 mps 745 mmHg 60%
    16:00 +9°C° 0.5 mm 2 mps 746 mmHg 58%
    17:00 +9°C° 0.5 mm 2 mps 746 mmHg 56%
    18:00 +9°C° 0.1 mm 3 mps 747 mmHg 60%
    19:00 +8°C° 0.1 mm 3 mps 747 mmHg 64%
    20:00 +6°C° 0.1 mm 4 mps 748 mmHg 68%
    21:00 +6°C° 0.1 mm 4 mps 749 mmHg 71%
    22:00 +5°C° 0.1 mm 4 mps 749 mmHg 73%
    23:00 +5°C° 0.1 mm 4 mps 750 mmHg 75%

    27 March, Wednesday

    Time Temperature Precipitation Wind Pressure Humidity
    00:00 +5°C° 0.1 mm 4 mps 750 mmHg 74%
    01:00 +5°C° 0.1 mm 4 mps 750 mmHg 73%
    02:00 +5°C° 0.1 mm 4 mps 751 mmHg 72%
    03:00 +5°C° 0 mm 4 mps 751 mmHg 72%
    04:00 +5°C° 0 mm 4 mps 752 mmHg 71%
    05:00 +4°C° 0 mm 3 mps 752 mmHg 71%
    06:00 +5°C° 0 mm 4 mps 752 mmHg 68%
    07:00 +6°C° 0 mm 5 mps 753 mmHg 64%
    08:00 +5°C° 0 mm 6 mps 753 mmHg 61%
    09:00 +8°C° 0 mm 6 mps 754 mmHg 55%
    10:00 +9°C° 0 mm 6 mps 754 mmHg 49%
    11:00 +10°C° 0 mm 6 mps 754 mmHg 43%
    12:00 +11°C° 0 mm 6 mps 754 mmHg 41%
    13:00 +12°C° 0 mm 5 mps 754 mmHg 39%
    14:00 +13°C° 0 mm 5 mps 753 mmHg 38%
    15:00 +12°C° 0 mm 5 mps 753 mmHg 38%
    16:00 +12°C° 0 mm 4 mps 753 mmHg 39%
    17:00 +12°C° 0 mm 3 mps 753 mmHg 40%
    18:00 +11°C° 0 mm 3 mps 753 mmHg 45%
    19:00 +10°C° 0 mm 2 mps 754 mmHg 50%
    20:00 +10°C° 0 mm 1 mps 754 mmHg 55%
    21:00 +9°C° 0.1 mm 1 mps 754 mmHg 57%
    22:00 +9°C° 0.1 mm 1 mps 754 mmHg 60%
    23:00 +9°C° 0.1 mm 1 mps 755 mmHg 63%
    Show more